This is the latest recevied weather packets stored in our database for station/object DG7YEO-13. If no packets are shown the sender has not sent any weather packets the latest 10 day(s).
| Time | Temp. | Humidity | Pressure | Rain* | Wind** | Luminosity | Snow |
|---|---|---|---|---|---|---|---|
| 1787389325 | 20° C | 64% | 1016.2 hPa | 0 mm | - | - | - |
| 1787388425 | 19.44° C | 66% | 1016.2 hPa | 0 mm | - | - | - |
| 1787387525 | 18.89° C | 69% | 1016.1 hPa | 0 mm | - | - | - |
| 1787386625 | 18.33° C | 73% | 1015.9 hPa | 0 mm | - | - | - |
| 1787385725 | 17.78° C | 77% | 1015.8 hPa | 0 mm | - | - | - |
| 1787384825 | 17.22° C | 80% | 1015.7 hPa | 0 mm | - | - | - |
| 1787383925 | 16.67° C | 84% | 1015.6 hPa | 0 mm | - | - | - |
| 1787383025 | 15.56° C | 87% | 1015.4 hPa | 0 mm | - | - | - |
| 1787382125 | 15° C | 90% | 1015.2 hPa | 0 mm | - | - | - |
| 1787381225 | 14.44° C | 92% | 1015.1 hPa | 0 mm | - | - | - |
| 1787380325 | 13.89° C | 94% | 1015 hPa | 0 mm | - | - | - |
| 1787379425 | 13.33° C | 93% | 1014.7 hPa | 0 mm | - | - | - |
| 1787378525 | 13.33° C | 93% | 1014.7 hPa | 0 mm | - | - | - |
| 1787377625 | 12.78° C | 93% | 1014.5 hPa | 0 mm | - | - | - |
| 1787376725 | 12.78° C | 93% | 1014.4 hPa | 0 mm | - | - | - |
| 1787375825 | 12.78° C | 93% | 1014.2 hPa | 0 mm | - | - | - |
| 1787374925 | 12.78° C | 92% | 1014.1 hPa | 0 mm | - | - | - |
| 1787374025 | 12.78° C | 92% | 1014 hPa | 0 mm | - | - | - |
| 1787373125 | 12.78° C | 91% | 1013.8 hPa | 0 mm | - | - | - |
| 1787372225 | 13.33° C | 91% | 1013.7 hPa | 0 mm | - | - | - |
| 1787371325 | 13.33° C | 91% | 1013.5 hPa | 0 mm | - | - | - |
| 1787370425 | 13.33° C | 90% | 1013.3 hPa | 0 mm | - | - | - |
| 1787369525 | 13.33° C | 90% | 1013.3 hPa | 0 mm | - | - | - |
| 1787368624 | 13.89° C | 90% | 1013.2 hPa | 0 mm | - | - | - |
| 1787367725 | 13.89° C | 90% | 1013.2 hPa | 0 mm | - | - | - |
* Rain latest hour (hover to see other rain measurements)
** Current wind speed in m/s (hover to see current wind gust speed)